Time,TemperatureF,DewpointF,PressureIn,WindDirection,WindDirectionDegrees,WindSpeedMPH,WindSpeedGustMPH,Humidity,HourlyPrecipIn,Conditions,Clouds,dailyrainin,SoftwareType,DateUTC
2013-03-16 07:41:00,30.1,20.0,29.87,North,5,0.0,-999.0,67,-99.99,,,0.00,weatherlink.com 1.10,2013-03-16 11:41:00,
2013-03-16 07:56:00,30.1,20.0,29.88,ENE,60,0.0,-999.0,67,-99.99,,,0.00,weatherlink.com 1.10,2013-03-16 11:56:00,
2013-03-16 08:11:00,30.3,19.0,29.88,North,360,0.0,-999.0,64,-99.99,,,0.00,weatherlink.com 1.10,2013-03-16 12:11:00,
2013-03-16 08:26:00,30.6,19.0,29.89,North,5,0.0,-999.0,63,-99.99,,,0.00,weatherlink.com 1.10,2013-03-16 12:26:00,
2013-03-16 08:41:00,30.8,19.0,29.89,NNW,341,4.0,-999.0,61,-99.99,,,0.00,weatherlink.com 1.10,2013-03-16 12:41:00,
2013-03-16 08:56:00,30.9,19.0,29.90,NW,325,1.0,-999.0,62,-99.99,,,0.00,weatherlink.com 1.10,2013-03-16 12:56:00,
2013-03-16 09:11:00,30.8,18.0,29.90,NE,42,2.0,-999.0,60,-99.99,,,0.00,weatherlink.com 1.10,2013-03-16 13:11:00,
2013-03-16 09:26:00,30.9,18.0,29.89,North,5,1.0,-999.0,59,-99.99,,,0.00,weatherlink.com 1.10,2013-03-16 13:26:00,
2013-03-16 09:41:00,31.3,19.0,29.89,North,9,0.0,-999.0,60,-99.99,,,0.00,weatherlink.com 1.10,2013-03-16 13:41:00,
2013-03-16 09:57:00,31.5,18.0,29.88,North,360,0.0,-999.0,58,-99.99,,,0.00,weatherlink.com 1.10,2013-03-16 13:57:00,
2013-03-16 10:12:00,31.9,19.0,29.88,North,355,0.0,-999.0,59,-99.99,,,0.00,weatherlink.com 1.10,2013-03-16 14:12:00,
2013-03-16 10:27:00,32.2,18.0,29.88,NNW,338,1.0,-999.0,57,-99.99,,,0.00,weatherlink.com 1.10,2013-03-16 14:27:00,
2013-03-16 10:42:00,32.4,19.0,29.87,North,351,0.0,-999.0,57,-99.99,,,0.00,weatherlink.com 1.10,2013-03-16 14:42:00,
2013-03-16 10:57:00,32.6,18.0,29.87,North,11,0.0,-999.0,56,-99.99,,,0.00,weatherlink.com 1.10,2013-03-16 14:57:00,
2013-03-16 11:12:00,32.9,19.0,29.86,NNE,17,0.0,-999.0,57,-99.99,,,0.00,weatherlink.com 1.10,2013-03-16 15:12:00,
2013-03-16 11:27:00,33.5,19.0,29.86,NNW,340,0.0,-999.0,55,-99.99,,,0.00,weatherlink.com 1.10,2013-03-16 15:27:00,
2013-03-16 11:42:00,34.0,19.0,29.86,NW,316,0.0,-999.0,55,-99.99,,,0.00,weatherlink.com 1.10,2013-03-16 15:42:00,
2013-03-16 11:57:00,34.7,19.0,29.86,NW,326,2.0,-999.0,53,-99.99,,,0.00,weatherlink.com 1.10,2013-03-16 15:57:00,
2013-03-16 12:12:00,35.0,19.0,29.84,SSW,208,3.0,-999.0,53,-99.99,,,0.00,weatherlink.com 1.10,2013-03-16 16:12:00,
2013-03-16 12:27:00,35.6,20.0,29.84,West,272,0.0,-999.0,53,-99.99,,,0.00,weatherlink.com 1.10,2013-03-16 16:27:00,
2013-03-16 12:42:00,35.4,20.0,29.84,WSW,249,0.0,-999.0,53,-99.99,,,0.00,weatherlink.com 1.10,2013-03-16 16:42:00,
2013-03-16 12:57:00,36.0,20.0,29.84,NW,313,0.0,-999.0,52,-99.99,,,0.00,weatherlink.com 1.10,2013-03-16 16:57:00,
2013-03-16 13:13:00,36.6,20.0,29.84,NW,309,0.0,-999.0,52,-99.99,,,0.00,weatherlink.com 1.10,2013-03-16 17:13:00,
2013-03-16 13:28:00,36.2,20.0,29.83,NNE,24,2.0,-999.0,52,-99.99,,,0.00,weatherlink.com 1.10,2013-03-16 17:28:00,
2013-03-16 13:43:00,36.0,20.0,29.82,WNW,300,0.0,-999.0,53,-99.99,,,0.00,weatherlink.com 1.10,2013-03-16 17:43:00,
2013-03-16 13:58:00,35.5,21.0,29.84,NNE,25,1.0,-999.0,57,-99.99,,,0.00,weatherlink.com 1.10,2013-03-16 17:58:00,
2013-03-16 14:13:00,35.3,26.0,29.84,SSW,211,0.0,-999.0,69,-99.99,,,0.00,weatherlink.com 1.10,2013-03-16 18:13:00,
2013-03-16 14:28:00,33.0,27.0,29.85,SSW,193,2.0,-999.0,80,-99.99,,,0.00,weatherlink.com 1.10,2013-03-16 18:28:00,
2013-03-16 14:43:00,31.8,28.0,29.84,SSW,193,0.0,-999.0,85,-99.99,,,0.00,weatherlink.com 1.10,2013-03-16 18:43:00,
2013-03-16 14:58:00,31.4,28.0,29.84,SW,217,0.0,-999.0,88,-99.99,,,0.00,weatherlink.com 1.10,2013-03-16 18:58:00,
2013-03-16 15:13:00,31.2,28.0,29.83,West,281,0.0,-999.0,89,-99.99,,,0.00,weatherlink.com 1.10,2013-03-16 19:13:00,
2013-03-16 15:28:00,31.3,29.0,29.83,West,281,0.0,-999.0,89,-99.99,,,0.01,weatherlink.com 1.10,2013-03-16 19:28:00,
2013-03-16 15:43:00,31.2,29.0,29.83,West,281,0.0,-999.0,90,-99.99,,,0.01,weatherlink.com 1.10,2013-03-16 19:43:00,
2013-03-16 15:59:00,31.2,28.0,29.82,West,281,0.0,-999.0,89,-99.99,,,0.01,weatherlink.com 1.10,2013-03-16 19:59:00,
2013-03-16 16:13:00,31.4,28.0,29.82,North,5,0.0,-999.0,88,-99.99,,,0.01,weatherlink.com 1.10,2013-03-16 20:13:00,
2013-03-16 16:29:00,31.8,29.0,29.81,North,5,0.0,-999.0,89,-99.99,,,0.01,weatherlink.com 1.10,2013-03-16 20:29:00,
2013-03-16 16:44:00,32.1,29.0,29.81,North,5,0.0,-999.0,89,-99.99,,,0.01,weatherlink.com 1.10,2013-03-16 20:44:00,
2013-03-16 16:59:00,32.2,29.0,29.80,North,5,0.0,-999.0,88,-99.99,,,0.01,weatherlink.com 1.10,2013-03-16 20:59:00,
2013-03-16 17:14:00,32.4,29.0,29.81,North,5,0.0,-999.0,86,-99.99,,,0.01,weatherlink.com 1.10,2013-03-16 21:14:00,
2013-03-16 17:29:00,32.3,28.0,29.81,North,5,0.0,-999.0,85,-99.99,,,0.01,weatherlink.com 1.10,2013-03-16 21:29:00,
2013-03-16 17:44:00,32.1,28.0,29.81,North,5,0.0,-999.0,85,-99.99,,,0.01,weatherlink.com 1.10,2013-03-16 21:44:00,
2013-03-16 17:59:00,31.9,29.0,29.82,NNW,338,0.0,-999.0,87,-99.99,,,0.01,weatherlink.com 1.10,2013-03-16 21:59:00,
2013-03-16 18:14:00,31.7,29.0,29.82,NNW,338,0.0,-999.0,88,-99.99,,,0.01,weatherlink.com 1.10,2013-03-16 22:14:00,
2013-03-16 18:29:00,31.8,29.0,29.83,NNW,338,0.0,-999.0,89,-99.99,,,0.01,weatherlink.com 1.10,2013-03-16 22:29:00,
2013-03-16 18:44:00,31.6,29.0,29.82,NNW,340,0.0,-999.0,88,-99.99,,,0.01,weatherlink.com 1.10,2013-03-16 22:44:00,
2013-03-16 18:59:00,31.4,28.0,29.82,NNW,340,0.0,-999.0,88,-99.99,,,0.01,weatherlink.com 1.10,2013-03-16 22:59:00,
2013-03-16 19:14:00,31.5,28.0,29.83,NNW,340,0.0,-999.0,88,-99.99,,,0.01,weatherlink.com 1.10,2013-03-16 23:14:00,
2013-03-16 19:29:00,31.5,29.0,29.84,NNW,340,0.0,-999.0,89,-99.99,,,0.02,weatherlink.com 1.10,2013-03-16 23:29:00,
2013-03-16 19:44:00,31.6,29.0,29.84,NNW,340,0.0,-999.0,88,-99.99,,,0.02,weatherlink.com 1.10,2013-03-16 23:44:00,
2013-03-16 20:00:00,31.7,29.0,29.85,NNW,340,0.0,-999.0,89,-99.99,,,0.02,weatherlink.com 1.10,2013-03-17 00:00:00,
2013-03-16 20:15:00,31.7,29.0,29.86,NNW,340,0.0,-999.0,89,-99.99,,,0.02,weatherlink.com 1.10,2013-03-17 00:15:00,
2013-03-16 20:30:00,31.6,29.0,29.86,NNW,340,0.0,-999.0,88,-99.99,,,0.02,weatherlink.com 1.10,2013-03-17 00:30:00,
2013-03-16 20:45:00,31.5,28.0,29.87,NNW,340,0.0,-999.0,88,-99.99,,,0.02,weatherlink.com 1.10,2013-03-17 00:45:00,
2013-03-16 21:00:00,31.5,28.0,29.87,NNW,340,0.0,-999.0,88,-99.99,,,0.02,weatherlink.com 1.10,2013-03-17 01:00:00,